Zurück zum Katalog

THORAD AGENA D DEB

AktivPO
NORAD 4855·DEBRIS·🇺🇸 United States

Gestartet Apr 8, 1970 von Vandenberg Space Force Base

Loading…

Nächste Überflüge

TLE

Source: Space-Track
1  4855U 70025EK  26221.86812766  .00000281  00000-0  34610-3 0  9991
2  4855  99.9532 177.3640 0014326 285.4514 131.2944 13.74871409804352

Verfolge THORAD AGENA D DEB in Echtzeit mit AllMySat

Download on the App Store